Previsão horária em Alichur

Hoje, 21 Janeiro, Quinta-feira

Tempo Temperatura Precipitação Vento Pressão Humidade
00:00 -29°C° 0 mm 2 m/s 445 mmHg 59%
01:00 -29°C° 0 mm 2 m/s 445 mmHg 56%
02:00 -29°C° 0 mm 2 m/s 445 mmHg 53%
03:00 -29°C° 0 mm 2 m/s 445 mmHg 51%
04:00 -29°C° 0 mm 2 m/s 445 mmHg 50%
05:00 -28°C° 0 mm 2 m/s 446 mmHg 40%
06:00 -28°C° 0 mm 2 m/s 446 mmHg 39%
07:00 -27°C° 0 mm 2 m/s 446 mmHg 38%
08:00 -27°C° 0 mm 2 m/s 446 mmHg 38%
09:00 -25°C° 0 mm 2 m/s 447 mmHg 42%
10:00 -21°C° 0 mm 2 m/s 448 mmHg 47%
11:00 -18°C° 0 mm 2 m/s 449 mmHg 51%
12:00 -17°C° 0 mm 2 m/s 449 mmHg 53%
13:00 -16°C° 0 mm 2 m/s 449 mmHg 54%
14:00 -15°C° 0 mm 2 m/s 448 mmHg 55%
15:00 -16°C° 0 mm 2 m/s 448 mmHg 60%
16:00 -16°C° 0 mm 2 m/s 447 mmHg 65%
17:00 -17°C° 0 mm 2 m/s 446 mmHg 70%
18:00 -19°C° 0 mm 2 m/s 446 mmHg 68%
19:00 -20°C° 0 mm 2 m/s 445 mmHg 67%
20:00 -21°C° 0 mm 2 m/s 445 mmHg 66%
21:00 -21°C° 0 mm 2 m/s 445 mmHg 64%
22:00 -24°C° 0 mm 3 m/s 444 mmHg 61%
23:00 -25°C° 0 mm 3 m/s 444 mmHg 59%

Amanhã, 22 Janeiro, Sexta-feira

Tempo Temperatura Precipitação Vento Pressão Humidade
00:00 -25°C° 0 mm 3 m/s 443 mmHg 58%
01:00 -26°C° 0 mm 3 m/s 443 mmHg 56%
02:00 -27°C° 0 mm 3 m/s 442 mmHg 54%
03:00 -27°C° 0 mm 3 m/s 441 mmHg 55%
04:00 -29°C° 0 mm 3 m/s 441 mmHg 55%
05:00 -29°C° 0 mm 3 m/s 440 mmHg 55%
06:00 -29°C° 0 mm 3 m/s 440 mmHg 61%
07:00 -29°C° 0 mm 3 m/s 440 mmHg 66%
08:00 -29°C° 0 mm 3 m/s 441 mmHg 72%
09:00 -25°C° 0 mm 3 m/s 442 mmHg 74%
10:00 -21°C° 0 mm 2 m/s 443 mmHg 76%
11:00 -19°C° 0 mm 2 m/s 444 mmHg 79%
12:00 -18°C° 0 mm 2 m/s 443 mmHg 80%
13:00 -17°C° 0 mm 2 m/s 442 mmHg 82%
14:00 -18°C° 0 mm 3 m/s 442 mmHg 84%
15:00 -18°C° 0.1 mm 2 m/s 441 mmHg 89%
16:00 -20°C° 0.1 mm 2 m/s 440 mmHg 94%
17:00 -21°C° 0.1 mm 2 m/s 438 mmHg 99%
18:00 -21°C° 0.2 mm 2 m/s 440 mmHg 99%
19:00 -20°C° 0.2 mm 2 m/s 441 mmHg 98%
20:00 -20°C° 0.2 mm 2 m/s 442 mmHg 98%
21:00 -22°C° 0.1 mm 3 m/s 442 mmHg 98%
22:00 -23°C° 0.1 mm 3 m/s 443 mmHg 98%
23:00 -23°C° 0.1 mm 3 m/s 443 mmHg 97%

Depois de amanhã, 23 Janeiro, Sábado

Tempo Temperatura Precipitação Vento Pressão Humidade
00:00 -24°C° 0 mm 3 m/s 443 mmHg 97%
01:00 -26°C° 0 mm 3 m/s 442 mmHg 96%
02:00 -27°C° 0 mm 3 m/s 441 mmHg 96%
03:00 -29°C° 0 mm 3 m/s 441 mmHg 96%
04:00 -30°C° 0 mm 3 m/s 441 mmHg 96%
05:00 -31°C° 0 mm 3 m/s 440 mmHg 96%
06:00 -32°C° 0 mm 3 m/s 440 mmHg 95%
07:00 -33°C° 0 mm 3 m/s 440 mmHg 95%
08:00 -34°C° 0 mm 3 m/s 440 mmHg 94%
09:00 -32°C° 0 mm 3 m/s 441 mmHg 92%
10:00 -31°C° 0 mm 3 m/s 442 mmHg 89%
11:00 -29°C° 0 mm 3 m/s 443 mmHg 87%
12:00 -27°C° 0 mm 3 m/s 444 mmHg 84%
13:00 -27°C° 0 mm 3 m/s 444 mmHg 82%
14:00 -26°C° 0 mm 3 m/s 444 mmHg 80%
15:00 -27°C° 0 mm 2 m/s 443 mmHg 82%
16:00 -29°C° 0 mm 2 m/s 441 mmHg 85%
17:00 -32°C° 0 mm 2 m/s 440 mmHg 88%
18:00 -34°C° 0 mm 2 m/s 440 mmHg 84%
19:00 -35°C° 0 mm 2 m/s 440 mmHg 79%
20:00 -36°C° 0 mm 2 m/s 440 mmHg 75%
21:00 -36°C° 0 mm 2 m/s 440 mmHg 73%
22:00 -36°C° 0 mm 2 m/s 440 mmHg 71%
23:00 -36°C° 0 mm 2 m/s 440 mmHg 68%

24 Janeiro, Domingo

Tempo Temperatura Precipitação Vento Pressão Humidade
00:00 -37°C° 0 mm 2 m/s 440 mmHg 65%
01:00 -37°C° 0 mm 2 m/s 440 mmHg 62%
02:00 -37°C° 0 mm 2 m/s 440 mmHg 58%
03:00 -37°C° 0 mm 2 m/s 439 mmHg 56%
04:00 -37°C° 0 mm 2 m/s 439 mmHg 54%
05:00 -35°C° 0 mm 1 m/s 439 mmHg 53%
06:00 -34°C° 0 mm 1 m/s 440 mmHg 51%
07:00 -34°C° 0 mm 1 m/s 440 mmHg 49%
08:00 -33°C° 0 mm 1 m/s 441 mmHg 47%
09:00 -31°C° 0 mm 1 m/s 443 mmHg 50%
10:00 -28°C° 0 mm 1 m/s 444 mmHg 53%
11:00 -24°C° 0 mm 1 m/s 446 mmHg 56%
12:00 -23°C° 0 mm 1 m/s 446 mmHg 59%
13:00 -22°C° 0 mm 1 m/s 446 mmHg 61%
14:00 -21°C° 0 mm 1 m/s 447 mmHg 64%
15:00 -23°C° 0 mm 1 m/s 445 mmHg 67%
16:00 -27°C° 0 mm 1 m/s 443 mmHg 70%
17:00 -29°C° 0 mm 1 m/s 441 mmHg 73%
18:00 -30°C° 0 mm 1 m/s 441 mmHg 69%
19:00 -30°C° 0 mm 0 m/s 441 mmHg 65%
20:00 -30°C° 0 mm 0 m/s 441 mmHg 61%
21:00 -31°C° 0 mm 0 m/s 441 mmHg 58%
22:00 -32°C° 0 mm 1 m/s 441 mmHg 56%
23:00 -32°C° 0 mm 1 m/s 441 mmHg 53%

25 Janeiro, Segunda-feira

Tempo Temperatura Precipitação Vento Pressão Humidade
00:00 -32°C° 0 mm 1 m/s 441 mmHg 52%
01:00 -33°C° 0 mm 1 m/s 441 mmHg 50%
02:00 -33°C° 0 mm 1 m/s 441 mmHg 49%
03:00 -33°C° 0 mm 1 m/s 441 mmHg 48%
04:00 -33°C° 0 mm 1 m/s 441 mmHg 47%
05:00 -34°C° 0 mm 1 m/s 441 mmHg 46%
06:00 -32°C° 0 mm 0 m/s 441 mmHg 45%
07:00 -32°C° 0 mm 0 m/s 442 mmHg 44%
08:00 -32°C° 0 mm 0 m/s 442 mmHg 42%
09:00 -29°C° 0 mm 0 m/s 444 mmHg 43%
10:00 -26°C° 0 mm 0 m/s 446 mmHg 45%
11:00 -23°C° 0 mm 0 m/s 447 mmHg 46%
12:00 -22°C° 0 mm 0 m/s 447 mmHg 51%
13:00 -21°C° 0 mm 0 m/s 447 mmHg 55%
14:00 -20°C° 0 mm 1 m/s 447 mmHg 60%
15:00 -23°C° 0 mm 0 m/s 445 mmHg 65%
16:00 -25°C° 0 mm 0 m/s 444 mmHg 69%
17:00 -27°C° 0 mm 0 m/s 442 mmHg 74%
18:00 -28°C° 0 mm 0 m/s 442 mmHg 68%
19:00 -28°C° 0 mm 0 m/s 442 mmHg 63%
20:00 -29°C° 0 mm 0 m/s 442 mmHg 57%
21:00 -29°C° 0 mm 0 m/s 442 mmHg 54%
22:00 -30°C° 0 mm 0 m/s 441 mmHg 51%
23:00 -30°C° 0 mm 0 m/s 441 mmHg 48%

26 Janeiro, Terça-feira

Tempo Temperatura Precipitação Vento Pressão Humidade
00:00 -30°C° 0 mm 0 m/s 441 mmHg 46%
01:00 -30°C° 0 mm 0 m/s 441 mmHg 45%
02:00 -30°C° 0 mm 0 m/s 441 mmHg 43%
03:00 -30°C° 0 mm 0 m/s 441 mmHg 44%
04:00 -30°C° 0 mm 0 m/s 441 mmHg 44%
05:00 -30°C° 0 mm 0 m/s 441 mmHg 45%
06:00 -29°C° 0 mm 0 m/s 442 mmHg 46%
07:00 -28°C° 0 mm 0 m/s 443 mmHg 47%
08:00 -27°C° 0 mm 0 m/s 444 mmHg 48%
09:00 -25°C° 0 mm 1 m/s 445 mmHg 49%
10:00 -23°C° 0 mm 1 m/s 446 mmHg 50%
11:00 -21°C° 0 mm 1 m/s 447 mmHg 51%
12:00 -21°C° 0 mm 1 m/s 447 mmHg 56%
13:00 -20°C° 0 mm 1 m/s 447 mmHg 61%
14:00 -19°C° 0 mm 1 m/s 447 mmHg 66%
15:00 -21°C° 0 mm 1 m/s 445 mmHg 71%
16:00 -23°C° 0 mm 1 m/s 444 mmHg 75%
17:00 -25°C° 0 mm 1 m/s 442 mmHg 80%
18:00 -27°C° 0 mm 1 m/s 442 mmHg 79%
19:00 -28°C° 0 mm 1 m/s 442 mmHg 78%
20:00 -29°C° 0 mm 1 m/s 442 mmHg 76%
21:00 -29°C° 0 mm 1 m/s 443 mmHg 78%
22:00 -29°C° 0 mm 1 m/s 443 mmHg 80%
23:00 -30°C° 0 mm 1 m/s 443 mmHg 81%
Mostrar mais

Necessitamos do seu Consentimento

A Meteoprog e os seus Fornecedores de Serviços podem armazenar e aceder a dados pessoais como cookies, identificadores do dispositivo ou outras tecnologias semelhantes existentes no seu dispositivo e processar estes dados para personalizar conteúdos e anúncios, assim como funcionalidades nas redes sociais e análise de tráfego.

  • Armazenar e/ou aceder a informações no seu dispositivo

    Os cookies, identificadores do dispositivo ou outras informações podem ser armazenados ou acedidos no seu dispositivo, para os fins acima indicados.

  • Anúncios e conteúdos personalizados, medição de anúncios e conteúdos, dados sobre o público-alvo e desenvolvimento de produtos

    Os anúncios e os conteúdos podem ser personalizados com base num perfil. Podem ser adicionados dados adicionais para uma maior personalização dos anúncios e dos conteúdos. A eficácia dos anúncios e dos conteúdos pode ser medida. Podem ser obtidas informações sobre o público que visualizou os anúncios e os conteúdos. Estes dados podem ser usados para desenvolver ou melhorar sistemas, softwares ou a experiência do utilizador.

Ao clicar em "Eu concordo”, permitirá o uso de cookies, identificadores do dispositivo e web beacons mencionados ou outras tecnologias semelhantes. As configurações do navegador do seu dispositivo podem ser alteradas.

Para certos fins, podem ser invocados interesses legítimos ao invés de consentimento. Pode ler mais informação sobre este assunto na nossa Política de Privacidade e Cookies.